| time (UTC) | temp F | wind direction | speed MPH | gust MPH | rain 1hr in | rain 24hr in | rain mn in | humidity % | barometer mb |
| 20260906210958 | 89 | 117 | 1.0 | 3.0 | 0.00 | 0.00 | 0.00 | 38 | 1014.4 |
| 20260906210457 | 89 | 134 | 2.0 | 7.0 | 0.00 | 0.00 | 0.00 | 37 | 1014.4 |
| 20260906205958 | 89 | 78 | 3.0 | 7.0 | 0.00 | 0.00 | 0.00 | 36 | 1014.4 |
| 20260906205455 | 89 | 113 | 2.0 | 6.0 | 0.00 | 0.00 | 0.00 | 39 | 1014.4 |
| 20260906204947 | 89 | 113 | 1.0 | 3.0 | 0.00 | 0.00 | 0.00 | 40 | 1014.7 |
| 20260906204442 | 89 | 123 | 2.0 | 5.0 | 0.00 | 0.00 | 0.00 | 40 | 1014.7 |
| 20260906203942 | 88 | 119 | 1.0 | 5.0 | 0.00 | 0.00 | 0.00 | 39 | 1014.8 |
| 20260906203444 | 88 | 86 | 1.0 | 4.0 | 0.00 | 0.00 | 0.00 | 42 | 1014.9 |
| 20260906203248 | 87 | 126 | 2.0 | 6.0 | 0.00 | 0.00 | 0.00 | 43 | 1014.9 |
| 20260906202744 | 88 | 322 | 2.0 | 8.0 | 0.00 | 0.00 | 0.00 | 42 | 1014.9 |
| 20260906201941 | 88 | 116 | 2.0 | 8.0 | 0.00 | 0.00 | 0.00 | 43 | 1014.9 |
| 20260906201743 | 89 | 98 | 2.0 | 7.0 | 0.00 | 0.00 | 0.00 | 45 | 1015.0 |
| 20260906200935 | 88 | 108 | 2.0 | 9.0 | 0.00 | 0.00 | 0.00 | 45 | 1015.0 |
| 20260906200438 | 89 | 113 | 2.0 | 9.0 | 0.00 | 0.00 | 0.00 | 43 | 1015.1 |
| 20260906200239 | 88 | 129 | 2.0 | 6.0 | 0.00 | 0.00 | 0.00 | 45 | 1015.1 |
| 20260906195435 | 88 | 117 | 2.0 | 6.0 | 0.00 | 0.00 | 0.00 | 42 | 1015.2 |
| 20260906194934 | 87 | 144 | 2.0 | 5.0 | 0.00 | 0.00 | 0.00 | 45 | 1015.2 |
| 20260906194433 | 87 | 85 | 2.0 | 5.0 | 0.00 | 0.00 | 0.00 | 45 | 1015.3 |
| 20260906193933 | 88 | 124 | 2.0 | 6.0 | 0.00 | 0.00 | 0.00 | 41 | 1015.5 |
| 20260906193434 | 87 | 288 | 1.0 | 6.0 | 0.00 | 0.00 | 0.00 | 44 | 1015.5 |
| 20260906192936 | 87 | 143 | 1.0 | 3.0 | 0.00 | 0.00 | 0.00 | 44 | 1015.7 |
| 20260906192437 | 88 | 336 | 1.0 | 3.0 | 0.00 | 0.00 | 0.00 | 43 | 1015.7 |
| 20260906192242 | 88 | 88 | 1.0 | 3.0 | 0.00 | 0.00 | 0.00 | 40 | 1015.8 |
| 20260906191436 | 87 | 98 | 1.0 | 3.0 | 0.00 | 0.00 | 0.00 | 48 | 1015.9 |
| 20260906190935 | 88 | 113 | 1.0 | 3.0 | 0.00 | 0.00 | 0.00 | 42 | 1016.0 |
| 20260906190435 | 87 | 124 | 1.0 | 5.0 | 0.00 | 0.00 | 0.00 | 43 | 1016.2 |
| 20260906185932 | 87 | 126 | 1.0 | 5.0 | 0.00 | 0.00 | 0.00 | 45 | 1016.3 |
| 20260906185433 | 87 | 107 | 1.0 | 2.0 | 0.00 | 0.00 | 0.00 | 47 | 1016.4 |
| 20260906184933 | 87 | 63 | 1.0 | 3.0 | 0.00 | 0.00 | 0.00 | 46 | 1016.5 |
| 20260906184432 | 86 | 190 | 2.0 | 5.0 | 0.00 | 0.00 | 0.00 | 46 | 1016.6 |
| 20260906183932 | 85 | 128 | 2.0 | 5.0 | 0.00 | 0.00 | 0.00 | 45 | 1016.7 |
| 20260906183738 | 86 | 107 | 1.0 | 5.0 | 0.00 | 0.00 | 0.00 | 44 | 1016.7 |
| 20260906182932 | 85 | 87 | 1.0 | 5.0 | 0.00 | 0.00 | 0.00 | 46 | 1016.8 |
| 20260906182433 | 85 | 326 | 1.0 | 5.0 | 0.00 | 0.00 | 0.00 | 46 | 1017.0 |
| 20260906182235 | 84 | 119 | 1.0 | 3.0 | 0.00 | 0.00 | 0.00 | 46 | 1017.1 |
| 20260906181431 | 84 | 90 | 1.0 | 5.0 | 0.00 | 0.00 | 0.00 | 46 | 1017.2 |
| 20260906181235 | 84 | 109 | 1.0 | 5.0 | 0.00 | 0.00 | 0.00 | 48 | 1017.3 |
| 20260906180736 | 84 | 317 | 0.0 | 2.0 | 0.00 | 0.00 | 0.00 | 50 | 1017.5 |
| 20260906175933 | 83 | 51 | 1.0 | 2.0 | 0.00 | 0.00 | 0.00 | 50 | 1017.5 |
| 20260906175432 | 83 | 57 | 0.0 | 2.0 | 0.00 | 0.00 | 0.00 | 49 | 1017.7 |
| 20260906174931 | 82 | 34 | 0.0 | 2.0 | 0.00 | 0.00 | 0.00 | 51 | 1017.7 |
| 20260906174431 | 82 | 180 | 0.0 | 2.0 | 0.00 | 0.00 | 0.00 | 53 | 1017.8 |
| 20260906173933 | 82 | 141 | 1.0 | 2.0 | 0.00 | 0.00 | 0.00 | 51 | 1017.9 |
| 20260906173432 | 82 | 53 | 0.0 | 2.0 | 0.00 | 0.00 | 0.00 | 49 | 1017.9 |
| 20260906172932 | 81 | 84 | 1.0 | 5.0 | 0.00 | 0.00 | 0.00 | 51 | 1018.0 |
| 20260906172432 | 81 | 117 | 1.0 | 5.0 | 0.00 | 0.00 | 0.00 | 51 | 1018.0 |
| 20260906171932 | 81 | 121 | 1.0 | 3.0 | 0.00 | 0.00 | 0.00 | 51 | 1018.1 |
| 20260906171432 | 80 | 111 | 1.0 | 4.0 | 0.00 | 0.00 | 0.00 | 54 | 1018.1 |
| 20260906170932 | 81 | 355 | 1.0 | 4.0 | 0.00 | 0.00 | 0.00 | 50 | 1018.2 |
| 20260906170433 | 81 | 96 | 1.0 | 3.0 | 0.00 | 0.00 | 0.00 | 52 | 1018.3 |
| 20260906170238 | 80 | 121 | 1.0 | 3.0 | 0.00 | 0.00 | 0.00 | 53 | 1018.3 |
| 20260906165434 | 80 | 119 | 1.0 | 4.0 | 0.00 | 0.00 | 0.00 | 52 | 1018.2 |
| 20260906164934 | 80 | 106 | 1.0 | 4.0 | 0.00 | 0.00 | 0.00 | 51 | 1018.3 |
| 20260906164734 | 81 | 194 | 1.0 | 2.0 | 0.00 | 0.00 | 0.00 | 52 | 1018.3 |
| 20260906163932 | 80 | 325 | 1.0 | 2.0 | 0.00 | 0.00 | 0.00 | 52 | 1018.3 |
| 20260906163431 | 81 | 307 | 0.0 | 3.0 | 0.00 | 0.00 | 0.00 | 55 | 1018.3 |
| 20260906162932 | 80 | 294 | 0.0 | 3.0 | 0.00 | 0.00 | 0.00 | 53 | 1018.3 |
| 20260906162516 | 80 | 288 | 0.0 | 2.0 | 0.00 | 0.00 | 0.00 | 53 | 1018.5 |
| 20260906161430 | 80 | 306 | 0.0 | 3.0 | 0.00 | 0.00 | 0.00 | 57 | 1018.5 |
| 20260906161231 | 80 | 96 | 1.0 | 3.0 | 0.00 | 0.00 | 0.00 | 57 | 1018.6 |
| 20260906160724 | 80 | 111 | 1.0 | 2.0 | 0.00 | 0.00 | 0.00 | 54 | 1018.6 |
| 20260906155925 | 80 | 99 | 1.0 | 3.0 | 0.00 | 0.00 | 0.00 | 60 | 1018.5 |
| 20260906155427 | 79 | 126 | 1.0 | 3.0 | 0.00 | 0.00 | 0.00 | 54 | 1018.5 |
| 20260906154926 | 78 | 67 | 1.0 | 3.0 | 0.00 | 0.00 | 0.00 | 60 | 1018.5 |
| 20260906154425 | 79 | 107 | 1.0 | 3.0 | 0.00 | 0.00 | 0.00 | 56 | 1018.5 |
| 20260906153924 | 79 | 150 | 1.0 | 2.0 | 0.00 | 0.00 | 0.00 | 56 | 1018.5 |
| 20260906153727 | 78 | 175 | 1.0 | 2.0 | 0.00 | 0.00 | 0.00 | 55 | 1018.5 |
| 20260906153225 | 78 | 279 | 1.0 | 3.0 | 0.00 | 0.00 | 0.00 | 58 | 1018.3 |
| 20260906152424 | 77 | 106 | 1.0 | 3.0 | 0.00 | 0.00 | 0.00 | 63 | 1018.5 |
| 20260906151922 | 78 | 120 | 1.0 | 2.0 | 0.00 | 0.00 | 0.00 | 58 | 1018.6 |
| 20260906151459 | 76 | 112 | 1.0 | 4.0 | 0.00 | 0.00 | 0.00 | 62 | 1018.5 |
| 20260906150413 | 76 | 119 | 1.0 | 3.0 | 0.00 | 0.00 | 0.00 | 60 | 1018.5 |
| 20260906145911 | 76 | 22 | 1.0 | 2.0 | 0.00 | 0.00 | 0.00 | 61 | 1018.5 |
| 20260906145411 | 75 | 138 | 0.0 | 2.0 | 0.00 | 0.00 | 0.00 | 61 | 1018.6 |
| 20260906144910 | 75 | 74 | 0.0 | 1.0 | 0.00 | 0.00 | 0.00 | 61 | 1018.6 |
| 20260906144411 | 76 | 0 | 0.0 | 2.0 | 0.00 | 0.00 | 0.00 | 59 | 1018.5 |
| 20260906143909 | 75 | 280 | 1.0 | 2.0 | 0.00 | 0.00 | 0.00 | 59 | 1018.5 |
| 20260906143405 | 76 | 253 | 0.0 | 2.0 | 0.00 | 0.00 | 0.00 | 58 | 1018.5 |
| 20260906142906 | 75 | 14 | 0.0 | 2.0 | 0.00 | 0.00 | 0.00 | 59 | 1018.5 |
| 20260906142405 | 74 | 122 | 1.0 | 2.0 | 0.00 | 0.00 | 0.00 | 62 | 1018.3 |
| 20260906141906 | 73 | 74 | 1.0 | 2.0 | 0.00 | 0.00 | 0.00 | 63 | 1018.3 |
| 20260906141405 | 72 | 9 | 1.0 | 2.0 | 0.00 | 0.00 | 0.00 | 63 | 1018.3 |
| 20260906140905 | 71 | 324 | 1.0 | 2.0 | 0.00 | 0.00 | 0.00 | 66 | 1018.3 |
| 20260906140404 | 69 | 294 | 1.0 | 3.0 | 0.00 | 0.00 | 0.00 | 69 | 1018.3 |
| 20260906135904 | 68 | 337 | 1.0 | 3.0 | 0.00 | 0.00 | 0.00 | 69 | 1018.3 |
| 20260906135403 | 67 | 344 | 1.0 | 2.0 | 0.00 | 0.00 | 0.00 | 71 | 1018.3 |
| 20260906134903 | 66 | 248 | 1.0 | 2.0 | 0.00 | 0.00 | 0.00 | 72 | 1018.1 |
| 20260906134452 | 66 | 11 | 0.0 | 2.0 | 0.00 | 0.00 | 0.00 | 74 | 1018.1 |
| 20260906133359 | 64 | 325 | 0.0 | 1.0 | 0.00 | 0.00 | 0.00 | 76 | 1018.1 |
| 20260906132847 | 64 | 325 | 0.0 | 1.0 | 0.00 | 0.00 | 0.00 | 76 | 1018.1 |
| 20260906132348 | 63 | 334 | 1.0 | 2.0 | 0.00 | 0.00 | 0.00 | 77 | 1018.0 |
| 20260906132144 | 63 | 336 | 1.0 | 3.0 | 0.00 | 0.00 | 0.00 | 77 | 1018.0 |
| 20260906131647 | 63 | 342 | 1.0 | 3.0 | 0.00 | 0.00 | 0.00 | 77 | 1017.9 |
| 20260906130841 | 63 | 320 | 1.0 | 2.0 | 0.00 | 0.00 | 0.00 | 77 | 1017.7 |
| 20260906130343 | 63 | 325 | 1.0 | 2.0 | 0.00 | 0.00 | 0.00 | 77 | 1017.7 |
| 20260906125842 | 63 | 327 | 1.0 | 2.0 | 0.00 | 0.00 | 0.00 | 77 | 1017.5 |
| 20260906125341 | 63 | 327 | 1.0 | 2.0 | 0.00 | 0.00 | 0.00 | 76 | 1017.4 |
| 20260906125138 | 63 | 327 | 1.0 | 2.0 | 0.00 | 0.00 | 0.00 | 77 | 1017.4 |
| 20260906124335 | 63 | 342 | 1.0 | 2.0 | 0.00 | 0.00 | 0.00 | 76 | 1017.4 |
| 20260906124133 | 63 | 342 | 0.0 | 2.0 | 0.00 | 0.00 | 0.00 | 76 | 1017.4 |
| 20260906123336 | 63 | 324 | 0.0 | 1.0 | 0.00 | 0.00 | 0.00 | 76 | 1017.3 |
| 20260906123130 | 64 | 324 | 1.0 | 2.0 | 0.00 | 0.00 | 0.00 | 75 | 1017.2 |
| 20260906122334 | 64 | 318 | 1.0 | 2.0 | 0.00 | 0.00 | 0.00 | 75 | 1017.1 |
| 20260906122139 | 64 | 342 | 1.0 | 2.0 | 0.00 | 0.00 | 0.00 | 74 | 1017.0 |
| 20260906121334 | 64 | 25 | 1.0 | 2.0 | 0.00 | 0.00 | 0.00 | 74 | 1016.8 |
| 20260906120833 | 65 | 346 | 1.0 | 2.0 | 0.00 | 0.00 | 0.00 | 73 | 1017.0 |
| 20260906120332 | 65 | 49 | 1.0 | 2.0 | 0.00 | 0.00 | 0.00 | 74 | 1017.0 |
| 20260906115833 | 65 | 325 | 1.0 | 2.0 | 0.00 | 0.00 | 0.00 | 73 | 1016.8 |
| 20260906115334 | 65 | 317 | 1.0 | 2.0 | 0.00 | 0.00 | 0.00 | 73 | 1016.8 |
| 20260906114835 | 65 | 333 | 1.0 | 2.0 | 0.00 | 0.00 | 0.00 | 73 | 1016.7 |
| 20260906114333 | 65 | 307 | 0.0 | 2.0 | 0.00 | 0.00 | 0.00 | 73 | 1016.7 |
| 20260906113832 | 65 | 333 | 1.0 | 2.0 | 0.00 | 0.00 | 0.00 | 73 | 1016.8 |
| 20260906113333 | 66 | 330 | 1.0 | 2.0 | 0.00 | 0.00 | 0.00 | 72 | 1016.8 |
| 20260906112832 | 66 | 316 | 0.0 | 2.0 | 0.00 | 0.00 | 0.00 | 73 | 1016.8 |
| 20260906112332 | 66 | 331 | 0.0 | 2.0 | 0.00 | 0.00 | 0.00 | 73 | 1016.7 |
| 20260906111832 | 66 | 331 | 1.0 | 2.0 | 0.00 | 0.00 | 0.00 | 70 | 1016.7 |
| 20260906111631 | 66 | 344 | 1.0 | 2.0 | 0.00 | 0.00 | 0.00 | 70 | 1016.7 |
| 20260906110831 | 67 | 337 | 1.0 | 3.0 | 0.00 | 0.00 | 0.00 | 70 | 1016.7 |
| 20260906110631 | 67 | 346 | 1.0 | 3.0 | 0.00 | 0.00 | 0.00 | 70 | 1016.6 |
| 20260906105832 | 67 | 333 | 1.0 | 3.0 | 0.00 | 0.00 | 0.00 | 69 | 1016.6 |
| 20260906105331 | 67 | 319 | 1.0 | 2.0 | 0.00 | 0.00 | 0.00 | 70 | 1016.7 |
| 20260906104831 | 67 | 355 | 1.0 | 4.0 | 0.00 | 0.00 | 0.00 | 70 | 1016.6 |
| 20260906104331 | 66 | 321 | 1.0 | 4.0 | 0.00 | 0.00 | 0.00 | 70 | 1016.6 |
| 20260906103832 | 66 | 325 | 1.0 | 3.0 | 0.00 | 0.00 | 0.00 | 70 | 1016.6 |
| 20260906103637 | 66 | 346 | 1.0 | 2.0 | 0.00 | 0.00 | 0.00 | 71 | 1016.7 |
| 20260906103134 | 66 | 312 | 1.0 | 2.0 | 0.00 | 0.00 | 0.00 | 71 | 1016.7 |
| 20260906102333 | 66 | 342 | 1.0 | 3.0 | 0.00 | 0.00 | 0.00 | 71 | 1016.8 |
| 20260906102130 | 66 | 319 | 1.0 | 3.0 | 0.00 | 0.00 | 0.00 | 70 | 1016.8 |
| 20260906101325 | 66 | 333 | 1.0 | 3.0 | 0.00 | 0.00 | 0.00 | 70 | 1016.8 |
| 20260906100817 | 66 | 338 | 1.0 | 4.0 | 0.00 | 0.00 | 0.00 | 69 | 1016.6 |
| 20260906100311 | 67 | 322 | 1.0 | 4.0 | 0.00 | 0.00 | 0.00 | 69 | 1016.7 |
| 20260906095811 | 67 | 28 | 2.0 | 4.0 | 0.00 | 0.00 | 0.00 | 69 | 1016.6 |
| 20260906095311 | 67 | 319 | 1.0 | 3.0 | 0.00 | 0.00 | 0.00 | 69 | 1016.5 |
| 20260906094811 | 67 | 340 | 1.0 | 3.0 | 0.00 | 0.00 | 0.00 | 68 | 1016.5 |
| 20260906094309 | 67 | 327 | 1.0 | 3.0 | 0.00 | 0.00 | 0.00 | 68 | 1016.5 |
| 20260906093811 | 67 | 342 | 1.0 | 2.0 | 0.00 | 0.00 | 0.00 | 68 | 1016.5 |
| 20260906093307 | 67 | 333 | 1.0 | 3.0 | 0.00 | 0.00 | 0.00 | 68 | 1016.5 |
| 20260906092808 | 67 | 292 | 1.0 | 3.0 | 0.00 | 0.00 | 0.00 | 67 | 1016.4 |
| 20260906092309 | 67 | 319 | 1.0 | 3.0 | 0.00 | 0.00 | 0.00 | 67 | 1016.4 |
| 20260906091805 | 67 | 323 | 1.0 | 4.0 | 0.00 | 0.00 | 0.00 | 67 | 1016.5 |
| 20260906091307 | 68 | 340 | 2.0 | 4.0 | 0.00 | 0.00 | 0.00 | 67 | 1016.5 |
| 20260906091116 | 68 | 322 | 1.0 | 4.0 | 0.00 | 0.00 | 0.00 | 66 | 1016.5 |
| 20260906090306 | 69 | 334 | 1.0 | 3.0 | 0.00 | 0.00 | 0.00 | 65 | 1016.5 |
| 20260906085807 | 69 | 295 | 1.0 | 3.0 | 0.00 | 0.00 | 0.00 | 64 | 1016.4 |
| 20260906085307 | 69 | 317 | 1.0 | 3.0 | 0.00 | 0.00 | 0.00 | 65 | 1016.4 |
| 20260906085110 | 69 | 279 | 1.0 | 2.0 | 0.00 | 0.00 | 0.00 | 65 | 1016.4 |
| 20260906084616 | 69 | 201 | 1.0 | 2.0 | 0.00 | 0.00 | 0.00 | 65 | 1016.4 |
| 20260906083809 | 69 | 305 | 1.0 | 2.0 | 0.00 | 0.00 | 0.00 | 64 | 1016.5 |
| 20260906083306 | 69 | 316 | 0.0 | 3.0 | 0.00 | 0.00 | 0.00 | 64 | 1016.5 |
| 20260906082807 | 69 | 296 | 0.0 | 3.0 | 0.00 | 0.00 | 0.00 | 64 | 1016.5 |
| 20260906082610 | 69 | 64 | 1.0 | 2.0 | 0.00 | 0.00 | 0.00 | 65 | 1016.6 |
| 20260906082108 | 69 | 200 | 1.0 | 3.0 | 0.00 | 0.00 | 0.00 | 64 | 1016.6 |
| 20260906081304 | 68 | 23 | 1.0 | 3.0 | 0.00 | 0.00 | 0.00 | 63 | 1016.6 |
| 20260906081107 | 69 | 336 | 1.0 | 3.0 | 0.00 | 0.00 | 0.00 | 63 | 1016.6 |
| 20260906080303 | 69 | 222 | 1.0 | 3.0 | 0.00 | 0.00 | 0.00 | 63 | 1016.5 |
| 20260906075805 | 69 | 342 | 1.0 | 2.0 | 0.00 | 0.00 | 0.00 | 62 | 1016.4 |
| 20260906075306 | 69 | 347 | 1.0 | 3.0 | 0.00 | 0.00 | 0.00 | 62 | 1016.4 |
| 20260906075108 | 69 | 280 | 1.0 | 3.0 | 0.00 | 0.00 | 0.00 | 62 | 1016.3 |
| 20260906074302 | 69 | 234 | 1.0 | 3.0 | 0.00 | 0.00 | 0.00 | 61 | 1016.0 |
| 20260906074110 | 69 | 294 | 1.0 | 3.0 | 0.00 | 0.00 | 0.00 | 61 | 1016.0 |
| 20260906073305 | 69 | 331 | 1.0 | 3.0 | 0.00 | 0.00 | 0.00 | 61 | 1015.9 |
| 20260906072805 | 69 | 290 | 1.0 | 3.0 | 0.00 | 0.00 | 0.00 | 61 | 1015.9 |
| 20260906072306 | 69 | 268 | 1.0 | 3.0 | 0.00 | 0.00 | 0.00 | 60 | 1015.9 |
| 20260906072110 | 70 | 331 | 1.0 | 3.0 | 0.00 | 0.00 | 0.00 | 60 | 1015.9 |
| 20260906071306 | 70 | 286 | 1.0 | 3.0 | 0.00 | 0.00 | 0.00 | 59 | 1015.8 |
| 20260906070804 | 70 | 319 | 1.0 | 3.0 | 0.00 | 0.00 | 0.00 | 58 | 1015.9 |
| 20260906070305 | 71 | 315 | 1.0 | 2.0 | 0.00 | 0.00 | 0.00 | 57 | 1015.9 |
| 20260906065804 | 71 | 327 | 1.0 | 3.0 | 0.00 | 0.00 | 0.00 | 56 | 1015.9 |
| 20260906065306 | 71 | 325 | 1.0 | 3.0 | 0.00 | 0.00 | 0.00 | 56 | 1016.0 |
| 20260906064804 | 71 | 218 | 1.0 | 3.0 | 0.00 | 0.00 | 0.00 | 55 | 1016.0 |
| 20260906064304 | 72 | 232 | 1.0 | 3.0 | 0.00 | 0.00 | 0.00 | 54 | 1016.0 |
| 20260906064110 | 71 | 284 | 0.0 | 2.0 | 0.00 | 0.00 | 0.00 | 54 | 1016.0 |
| 20260906063347 | 71 | 312 | 0.0 | 2.0 | 0.00 | 0.00 | 0.00 | 53 | 1016.0 |
| 20260906062306 | 72 | 336 | 1.0 | 3.0 | 0.00 | 0.00 | 0.00 | 53 | 1016.0 |
| 20260906061805 | 72 | 323 | 1.0 | 2.0 | 0.00 | 0.00 | 0.00 | 53 | 1016.0 |
| 20260906061306 | 72 | 313 | 1.0 | 1.0 | 0.00 | 0.00 | 0.00 | 52 | 1016.2 |
| 20260906061108 | 72 | 313 | 1.0 | 2.0 | 0.00 | 0.00 | 0.00 | 52 | 1016.0 |
| 20260906060306 | 72 | 334 | 0.0 | 2.0 | 0.00 | 0.00 | 0.00 | 52 | 1015.9 |
| 20260906055806 | 73 | 51 | 0.0 | 1.0 | 0.00 | 0.00 | 0.00 | 51 | 1016.0 |
| 20260906055307 | 73 | 106 | 0.0 | 1.0 | 0.00 | 0.00 | 0.00 | 49 | 1016.0 |
| 20260906055111 | 73 | 107 | 0.0 | 1.0 | 0.00 | 0.00 | 0.00 | 49 | 1015.9 |
| 20260906054308 | 74 | 107 | 0.0 | 1.0 | 0.00 | 0.00 | 0.00 | 49 | 1015.9 |
| 20260906053805 | 73 | 107 | 0.0 | 0.0 | 0.00 | 0.00 | 0.00 | 49 | 1015.9 |
| 20260906053306 | 74 | 107 | 0.0 | 0.0 | 0.00 | 0.00 | 0.00 | 48 | 1016.0 |
| 20260906052805 | 74 | 107 | 0.0 | 0.0 | 0.00 | 0.00 | 0.00 | 48 | 1016.3 |
| 20260906052306 | 74 | 107 | 0.0 | 0.0 | 0.00 | 0.00 | 0.00 | 48 | 1016.3 |
| 20260906051807 | 74 | 107 | 0.0 | 1.0 | 0.00 | 0.00 | 0.00 | 48 | 1016.2 |
| 20260906051305 | 75 | 107 | 0.0 | 1.0 | 0.00 | 0.00 | 0.00 | 47 | 1016.3 |
| 20260906050804 | 75 | 107 | 0.0 | 2.0 | 0.00 | 0.00 | 0.00 | 47 | 1016.3 |
| 20260906050307 | 75 | 107 | 0.0 | 2.0 | 0.00 | 0.00 | 0.00 | 46 | 1016.3 |
| 20260906045805 | 76 | 146 | 1.0 | 3.0 | 0.00 | 0.00 | 0.00 | 46 | 1016.2 |
| 20260906045605 | 76 | 120 | 2.0 | 5.0 | 0.00 | 0.00 | 0.00 | 45 | 1016.2 |
| 20260906044806 | 77 | 115 | 2.0 | 5.0 | 0.00 | 0.00 | 0.00 | 43 | 1016.2 |
| 20260906044611 | 77 | 110 | 1.0 | 3.0 | 0.00 | 0.00 | 0.00 | 43 | 1016.0 |
| 20260906043803 | 76 | 113 | 1.0 | 3.0 | 0.00 | 0.00 | 0.00 | 43 | 1016.0 |
| 20260906043304 | 76 | 113 | 1.0 | 3.0 | 0.00 | 0.00 | 0.00 | 44 | 1016.0 |
| 20260906042806 | 76 | 113 | 0.0 | 2.0 | 0.00 | 0.00 | 0.00 | 45 | 1015.8 |
| 20260906042306 | 77 | 117 | 1.0 | 3.0 | 0.00 | 0.00 | 0.00 | 43 | 1015.9 |
| 20260906041805 | 77 | 142 | 1.0 | 3.0 | 0.00 | 0.00 | 0.00 | 44 | 1016.0 |
| 20260906041306 | 76 | 95 | 0.0 | 2.0 | 0.00 | 0.00 | 0.00 | 45 | 1015.9 |
| 20260906040806 | 77 | 121 | 0.0 | 0.0 | 0.00 | 0.00 | 0.00 | 43 | 1015.8 |
| 20260906040606 | 77 | 121 | 0.0 | 0.0 | 0.00 | 0.00 | 0.00 | 43 | 1015.7 |
| 20260906035805 | 77 | 121 | 0.0 | 0.0 | 0.00 | 0.00 | 0.00 | 43 | 1015.7 |
| 20260906035608 | 77 | 121 | 0.0 | 0.0 | 0.00 | 0.00 | 0.00 | 44 | 1015.8 |
| 20260906034804 | 78 | 121 | 0.0 | 0.0 | 0.00 | 0.00 | 0.00 | 43 | 1015.7 |
| 20260906034304 | 78 | 121 | 0.0 | 1.0 | 0.00 | 0.00 | 0.00 | 43 | 1015.7 |
| 20260906033808 | 79 | 121 | 0.0 | 1.0 | 0.00 | 0.00 | 0.00 | 42 | 1015.8 |
| 20260906033306 | 79 | 121 | 0.0 | 1.0 | 0.00 | 0.00 | 0.00 | 41 | 1015.8 |
| 20260906032808 | 80 | 121 | 0.0 | 1.0 | 0.00 | 0.00 | 0.00 | 40 | 1015.7 |
| 20260906032305 | 80 | 121 | 0.0 | 2.0 | 0.00 | 0.00 | 0.00 | 40 | 1015.7 |
| 20260906031801 | 80 | 121 | 1.0 | 3.0 | 0.00 | 0.00 | 0.00 | 40 | 1015.6 |
| 20260906031304 | 80 | 101 | 1.0 | 3.0 | 0.00 | 0.00 | 0.00 | 42 | 1015.7 |
| 20260906030804 | 80 | 94 | 2.0 | 3.0 | 0.00 | 0.00 | 0.00 | 43 | 1015.5 |
| 20260906030303 | 80 | 123 | 2.0 | 5.0 | 0.00 | 0.00 | 0.00 | 44 | 1015.3 |
| 20260906025802 | 79 | 119 | 1.0 | 5.0 | 0.00 | 0.00 | 0.00 | 46 | 1015.3 |
| 20260906025306 | 80 | 123 | 1.0 | 3.0 | 0.00 | 0.00 | 0.00 | 46 | 1015.1 |
| 20260906024801 | 80 | 130 | 1.0 | 2.0 | 0.00 | 0.00 | 0.00 | 44 | 1015.1 |
| 20260906024603 | 81 | 149 | 1.0 | 2.0 | 0.00 | 0.00 | 0.00 | 40 | 1015.0 |
| 20260906023802 | 81 | 150 | 1.0 | 2.0 | 0.00 | 0.00 | 0.00 | 38 | 1014.8 |
| 20260906023604 | 82 | 150 | 1.0 | 2.0 | 0.00 | 0.00 | 0.00 | 38 | 1014.8 |
| 20260906022805 | 82 | 99 | 0.0 | 2.0 | 0.00 | 0.00 | 0.00 | 36 | 1014.7 |
| 20260906022307 | 83 | 55 | 0.0 | 1.0 | 0.00 | 0.00 | 0.00 | 35 | 1014.7 |
| 20260906021805 | 83 | 26 | 0.0 | 0.0 | 0.00 | 0.00 | 0.00 | 34 | 1014.5 |
| 20260906021305 | 83 | 26 | 0.0 | 0.0 | 0.00 | 0.00 | 0.00 | 35 | 1014.4 |
| 20260906020805 | 83 | 26 | 0.0 | 0.0 | 0.00 | 0.00 | 0.00 | 36 | 1014.2 |
| 20260906020305 | 82 | 26 | 0.0 | 0.0 | 0.00 | 0.00 | 0.00 | 38 | 1014.2 |
| 20260906015805 | 84 | 26 | 0.0 | 0.0 | 0.00 | 0.00 | 0.00 | 36 | 1014.2 |
| 20260906015307 | 84 | 26 | 0.0 | 1.0 | 0.00 | 0.00 | 0.00 | 35 | 1014.1 |
| 20260906014806 | 86 | 26 | 0.0 | 1.0 | 0.00 | 0.00 | 0.00 | 31 | 1014.1 |
| 20260906014308 | 86 | 26 | 0.0 | 1.0 | 0.00 | 0.00 | 0.00 | 31 | 1014.0 |
| 20260906013805 | 86 | 26 | 0.0 | 1.0 | 0.00 | 0.00 | 0.00 | 31 | 1014.0 |
| 20260906013307 | 86 | 26 | 0.0 | 1.0 | 0.00 | 0.00 | 0.00 | 30 | 1013.8 |
| 20260906012805 | 87 | 26 | 0.0 | 0.0 | 0.00 | 0.00 | 0.00 | 31 | 1013.8 |
| 20260906012306 | 87 | 26 | 0.0 | 0.0 | 0.00 | 0.00 | 0.00 | 31 | 1013.7 |
| 20260906011806 | 87 | 26 | 0.0 | 1.0 | 0.00 | 0.00 | 0.00 | 31 | 1013.8 |
| 20260906011600 | 87 | 26 | 0.0 | 1.0 | 0.00 | 0.00 | 0.00 | 31 | 1013.7 |
| 20260906010806 | 87 | 26 | 0.0 | 1.0 | 0.00 | 0.00 | 0.00 | 31 | 1013.7 |
| 20260906010306 | 88 | 26 | 0.0 | 1.0 | 0.00 | 0.00 | 0.00 | 29 | 1013.8 |
| 20260906010207 | 88 | 26 | 0.0 | 1.0 | 0.00 | 0.00 | 0.00 | 29 | 1013.8 |
| 20260906004805 | 88 | 26 | 0.0 | 1.0 | 0.00 | 0.00 | 0.00 | 30 | 1013.7 |
| 20260906004304 | 89 | 26 | 0.0 | 1.0 | 0.00 | 0.00 | 0.00 | 30 | 1013.7 |
| 20260906003806 | 89 | 26 | 0.0 | 1.0 | 0.00 | 0.00 | 0.00 | 28 | 1013.7 |
| 20260906003307 | 90 | 26 | 0.0 | 1.0 | 0.00 | 0.00 | 0.00 | 28 | 1013.7 |
| 20260906002804 | 90 | 24 | 0.0 | 1.0 | 0.00 | 0.00 | 0.00 | 27 | 1013.7 |
| 20260906002306 | 90 | 5 | 0.0 | 1.0 | 0.00 | 0.00 | 0.00 | 29 | 1013.7 |
| 20260906002105 | 91 | 32 | 0.0 | 2.0 | 0.00 | 0.00 | 0.00 | 28 | 1013.7 |
| 20260906001258 | 91 | 244 | 1.0 | 2.0 | 0.00 | 0.00 | 0.00 | 26 | 1013.7 |
| 20260906000747 | 91 | 264 | 1.0 | 3.0 | 0.00 | 0.00 | 0.00 | 27 | 1013.8 |
| 20260906000234 | 90 | 15 | 1.0 | 3.0 | 0.00 | 0.00 | 0.00 | 27 | 1013.8 |
| 20260905235732 | 89 | 57 | 1.0 | 2.0 | 0.00 | 0.00 | 0.00 | 29 | 1013.8 |
| 20260905235235 | 89 | 299 | 1.0 | 2.0 | 0.00 | 0.00 | 0.00 | 28 | 1013.8 |
| 20260905234733 | 89 | 347 | 0.0 | 2.0 | 0.00 | 0.00 | 0.00 | 29 | 1013.8 |
| 20260905234532 | 89 | 304 | 1.0 | 2.0 | 0.00 | 0.00 | 0.00 | 29 | 1013.7 |
| 20260905233733 | 90 | 84 | 1.0 | 3.0 | 0.00 | 0.00 | 0.00 | 27 | 1013.8 |
| 20260905233232 | 91 | 151 | 1.0 | 3.0 | 0.00 | 0.00 | 0.00 | 28 | 1013.7 |
| 20260905232732 | 91 | 122 | 1.0 | 2.0 | 0.00 | 0.00 | 0.00 | 26 | 1013.7 |
| 20260905232235 | 91 | 124 | 1.0 | 3.0 | 0.00 | 0.00 | 0.00 | 26 | 1013.5 |
| 20260905231729 | 91 | 124 | 1.0 | 3.0 | 0.00 | 0.00 | 0.00 | 25 | 1013.5 |
| 20260905231218 | 91 | 112 | 1.0 | 3.0 | 0.00 | 0.00 | 0.00 | 25 | 1013.6 |
| 20260905230708 | 91 | 98 | 1.0 | 3.0 | 0.00 | 0.00 | 0.00 | 26 | 1013.6 |
| 20260905230212 | 91 | 98 | 1.0 | 3.0 | 0.00 | 0.00 | 0.00 | 25 | 1013.6 |
| 20260905225705 | 91 | 103 | 1.0 | 3.0 | 0.00 | 0.00 | 0.00 | 25 | 1013.6 |
| 20260905225205 | 91 | 107 | 1.0 | 2.0 | 0.00 | 0.00 | 0.00 | 26 | 1013.7 |
| 20260905225004 | 91 | 107 | 1.0 | 3.0 | 0.00 | 0.00 | 0.00 | 24 | 1013.7 |
| 20260905224208 | 92 | 112 | 2.0 | 4.0 | 0.00 | 0.00 | 0.00 | 23 | 1013.6 |
| 20260905223707 | 92 | 96 | 2.0 | 5.0 | 0.00 | 0.00 | 0.00 | 23 | 1013.6 |
| 20260905223204 | 92 | 105 | 2.0 | 5.0 | 0.00 | 0.00 | 0.00 | 24 | 1013.6 |
| 20260905222707 | 92 | 109 | 2.0 | 5.0 | 0.00 | 0.00 | 0.00 | 23 | 1013.6 |
| 20260905222204 | 92 | 110 | 1.0 | 5.0 | 0.00 | 0.00 | 0.00 | 21 | 1013.6 |
| 20260905221707 | 92 | 98 | 1.0 | 3.0 | 0.00 | 0.00 | 0.00 | 24 | 1013.6 |
| 20260905221202 | 93 | 101 | 1.0 | 2.0 | 0.00 | 0.00 | 0.00 | 24 | 1013.6 |
| 20260905220703 | 93 | 102 | 1.0 | 4.0 | 0.00 | 0.00 | 0.00 | 23 | 1013.6 |
| 20260905220505 | 94 | 133 | 2.0 | 5.0 | 0.00 | 0.00 | 0.00 | 23 | 1013.6 |
| 20260905215704 | 94 | 99 | 1.0 | 5.0 | 0.00 | 0.00 | 0.00 | 24 | 1013.7 |
| 20260905215201 | 94 | 166 | 1.0 | 3.0 | 0.00 | 0.00 | 0.00 | 23 | 1013.7 |
| 20260905214704 | 94 | 156 | 2.0 | 5.0 | 0.00 | 0.00 | 0.00 | 22 | 1013.7 |
| 20260905214201 | 94 | 117 | 3.0 | 8.0 | 0.00 | 0.00 | 0.00 | 21 | 1013.8 |
| 20260905213704 | 95 | 118 | 3.0 | 8.0 | 0.00 | 0.00 | 0.00 | 21 | 1013.8 |
| 20260905213510 | 94 | 128 | 2.0 | 6.0 | 0.00 | 0.00 | 0.00 | 23 | 1013.8 |
| 20260905212705 | 94 | 87 | 1.0 | 5.0 | 0.00 | 0.00 | 0.00 | 27 | 1013.8 |
| 20260905212507 | 93 | 155 | 1.0 | 3.0 | 0.00 | 0.00 | 0.00 | 23 | 1013.8 |
| 20260905211707 | 93 | 134 | 1.0 | 2.0 | 0.00 | 0.00 | 0.00 | 25 | 1013.8 |